Flag for New Zealand Weather past 2 weeks in Wellington, New Zealand

Now
46 °F

Passing clouds.


Feels Like: 42 °F
Forecast: 45 / 54 °F
Wind: 9 mph from Southeast

Location: Wellington Airport

Current Time: Sep 5, 2015 at 1:19:14 AM

Latest Report: Sep 5, 2015 at 1:00 AM


Visibility: N/A

Pressure: 29.68 "Hg

Humidity: 87%

Dew point: 43 °F

Location of WellingtonLocation

Historic Weather in Wellington — Graph

°F

Wellington temperature yesterday

Maximum temperature yesterday: 55 °F (at 3:30 PM)
Minimum temperature yesterday: 46 °F (at 10:00 PM)
Average temperature yesterday: 51 °F

Past Weeks' High & Low Weather Summary

 TemperatureHumidityPressure
High61 °F (Aug 30, 12:00 PM)100% (Aug 25, 12:00 PM)30.57 "Hg (Aug 25, 12:00 PM)
Low37 °F (Aug 22, 3:00 AM)47% (Aug 27, 12:00 PM)29.39 "Hg (Sep 2, 11:00 PM)
Average51 °F78%30.08 "Hg
* Reported Midnight between Aug 20 and Aug 21 — Midnight between Sep 4 and Sep 5, Wellington, Weather by CustomWeather, © 2015

Note: Actual official high and low records may vary slightly from our data, if they occured in-between our weather recording intervals... More about our weather records

Advertising

Wellington weather history for previous 24 hours

 ConditionsComfort  
Time TempWeatherWind HumidityBarometerVisibility
12:00 AM
Sat, Sep 5
46 °FPassing clouds.12 mph87%29.71 "HgN/A
11:30 PM
Fri, Sep 4
48 °FMostly cloudy.12 mph82%29.71 "HgN/A
11:00 PM46 °FSprinkles. Overcast.12 mph87%29.71 "HgN/A
10:30 PM46 °FMostly cloudy.14 mph87%29.71 "HgN/A
10:00 PM46 °FDrizzle. Mostly cloudy.17 mph93%29.71 "Hg6 mi
9:30 PM48 °FSprinkles. Overcast.14 mph87%29.71 "HgN/A
9:00 PM48 °FMostly cloudy.14 mph87%29.71 "HgN/A
8:30 PM48 °FLight rain. Mostly cloudy.15 mph87%29.71 "HgN/A
8:00 PM48 °FSprinkles. Mostly cloudy.16 mph87%29.71 "HgN/A
7:30 PM50 °FMostly cloudy.15 mph76%29.71 "HgN/A
7:00 PM50 °FSprinkles. Partly cloudy.17 mph82%29.71 "HgN/A
6:30 PM50 °FScattered showers. Mostly cloudy.15 mph82%29.68 "HgN/A
6:00 PM52 °FOvercast.15 mph77%29.68 "HgN/A
5:30 PM52 °FMostly cloudy.17 mph77%29.65 "HgN/A
5:00 PM54 °FPassing clouds.21 mph77%29.65 "HgN/A
4:30 PM55 °FCool.14 mph63%29.62 "HgN/A
4:00 PM55 °FCool.14 mph63%29.62 "HgN/A
3:30 PM55 °FCool.15 mph63%29.62 "HgN/A
3:00 PM54 °FCool.17 mph67%29.62 "HgN/A
2:30 PM54 °FCool.16 mph63%29.65 "HgN/A
2:00 PM54 °FCool.15 mph63%29.65 "HgN/A
1:30 PM54 °FCool.17 mph63%29.65 "HgN/A
1:00 PM54 °FCool.13 mph63%29.65 "HgN/A
12:30 PM54 °FCool.18 mph63%29.65 "HgN/A
12:00 PM52 °FCool.20 mph62%29.65 "HgN/A
11:30 AM52 °FCool.22 mph62%29.65 "HgN/A
11:00 AM52 °FCool.22 mph62%29.62 "HgN/A
10:30 AM52 °FCool.17 mph62%29.65 "HgN/A
10:00 AM52 °FCool.21 mph62%29.62 "HgN/A
9:30 AM52 °FCool.18 mph72%29.65 "HgN/A
9:00 AM52 °FCool.18 mph67%29.65 "HgN/A
8:30 AM52 °FCool.13 mph72%29.65 "HgN/A
8:00 AM52 °FPassing clouds.15 mph72%29.65 "HgN/A
7:30 AM52 °FPassing clouds.15 mph72%29.65 "HgN/A
7:00 AM52 °FScattered clouds.17 mph77%29.65 "HgN/A
6:30 AM52 °FCool.17 mph77%29.65 "HgN/A
6:00 AM52 °FPassing clouds.18 mph82%29.65 "HgN/A
5:30 AM52 °FPassing clouds.18 mph82%29.65 "HgN/A
5:00 AM52 °FPassing clouds.17 mph82%29.65 "HgN/A
4:30 AM52 °FCool.18 mph82%29.65 "HgN/A
4:00 AM52 °FPassing clouds.17 mph82%29.65 "HgN/A
3:30 AM52 °FPartly cloudy.18 mph88%29.65 "HgN/A
3:00 AM52 °FPassing clouds.17 mph88%29.65 "HgN/A
2:30 AM52 °FPassing clouds.20 mph88%29.68 "HgN/A
2:00 AM50 °FPassing clouds.20 mph88%29.68 "HgN/A
1:30 AM50 °FPassing clouds.16 mph88%29.68 "HgN/A
1:00 AM50 °FOvercast.14 mph82%29.68 "HgN/A
Weather by CustomWeather, © 2015

See weather overviewHow to use our weather pages